Location: Biharia
(46.4333°N, 22.8000°E)
Time: 17:53:12
(UTC+00:00)

FENGYUN 1C DEB - Pass Details

Date: 16 August 2022
Orbit: 796 x 915 km, 98.9° (Epoch: 24 September)

Event Time Altitude Azimuth Distance (km) Brightness Sun altitude
Rises 23:58:04 0° 10° (N) 3,438 ? -26.8°
Reaches altitude 10° 00:00:32 10° 5° (N) 2,479 ? -26.6°
Maximum altitude 00:05:48 51° 292° (WNW) 1,039 ? -26.3°
Enters shadow 00:06:05 50° 280° (W) 1,045 ? -26.2°
